ASTRA 2E (39285 NORAD) Tracking and Keplerian Element Data

This shows tracking and keplerian element data for the satellite.

Feedback or suggestion? Click here.




ElementValue
Catalog39285
NameASTRA 2E
Epoch Orbit4141
Epoch Day34.6892211
Epoch Year2025
RAAN324.097
Inclination0.0676
Eccentricity0.0003125
Argument of Perigee358.9248
Mean Anonmoly87.6339
Mean Motion1.00270641
Decay Rate1.54E-06
L11 39285U 13056A 25034.68922110 .00000154 00000+0 00000+0 0 9993
L22 39285 0.0676 324.0970 0003125 358.9248 87.6339 1.00270641 41410



Live tracking and technical data element details for ASTRA 2E (NORAD 39285). ASTRA 2E can be tracked NOW for your location showing map with azimuth and elevation plus other details from your city location.







IsCatalogInMostPopularTable: catalog: 39285, numindb: 448
Update: records affected: 1



GetName: 39285 ASTRA 2E

Hit Count: updated at: Sat, 17 May 2025 08:58:09 GMT